FW0772 Weather Reports


Display with metric or nautical units.
time (UTC)temp
F
wind
direction
speed
MPH
gust
MPH
rain 1hr
in
rain 24hr
in
rain mn
in
humidity
%
barometer
mb
20190123111638 24 102 5.0 12.0 0.00 0.00 0.00 86 1006.8
20190123110102 24 66 4.0 10.0 0.00 0.00 0.00 87 1006.8
20190123104554 23 121 5.0 13.0 0.00 0.00 0.00 88 1006.9
20190123103102 23 84 2.0 7.0 0.00 0.00 0.00 89 1006.9
20190123101607 22 100 5.0 11.0 0.00 0.00 0.00 88 1006.8
20190123100042 22 101 4.0 11.0 0.00 0.00 0.00 88 1006.8
20190123094534 22 119 6.0 11.0 0.00 0.00 0.00 87 1006.8
20190123093114 23 126 2.0 10.0 0.00 0.00 0.00 88 1006.7
20190123091536 23 117 2.0 7.0 0.00 0.00 0.00 88 1006.8
20190123090030 23 128 5.0 10.0 0.00 0.00 0.00 88 1006.8
20190123084524 22 128 2.0 7.0 0.00 0.00 0.00 89 1006.8
20190123083024 22 99 4.0 10.0 0.00 0.00 0.00 90 1006.8
20190123081524 21 109 3.0 7.0 0.00 0.00 0.00 91 1006.8
20190123080036 20 119 1.0 4.0 0.00 0.00 0.00 92 1006.9
20190123074523 20 118 3.0 8.0 0.00 0.00 0.00 93 1006.9
20190123073018 20 129 2.0 8.0 0.00 0.00 0.00 93 1006.9
20190123071502 20 124 2.0 7.0 0.00 0.00 0.00 93 1006.9
20190123064702 19 123 1.0 3.0 0.00 0.00 0.00 94 1006.9
20190123063206 19 117 1.0 4.0 0.00 0.00 0.00 94 1006.8
20190123061656 20 121 1.0 4.0 0.00 0.00 0.00 94 1006.7
20190123060151 20 114 1.0 3.0 0.00 0.00 0.00 94 1006.8
20190123054711 20 109 2.0 4.0 0.00 0.00 0.00 94 1006.7
20190123053149 20 129 1.0 8.0 0.00 0.00 0.00 94 1006.6
20190123051738 19 115 0.0 3.0 0.00 0.00 0.00 93 1006.7
20190123050119 19 106 0.0 4.0 0.00 0.00 0.00 93 1006.7
20190123044626 19 116 0.0 4.0 0.00 0.00 0.00 93 1006.8
20190123043143 20 93 2.0 7.0 0.00 0.00 0.00 93 1006.8
20190123041632 19 111 1.0 7.0 0.00 0.00 0.00 93 1006.9
20190123040211 19 128 0.0 4.0 0.00 0.00 0.00 93 1006.9
20190123034618 19 131 1.0 4.0 0.00 0.00 0.00 93 1006.9
20190123033142 20 110 1.0 6.0 0.00 0.00 0.00 93 1006.9
20190123031631 19 129 1.0 4.0 0.00 0.00 0.00 92 1006.9
20190123030143 20 113 1.0 7.0 0.00 0.00 0.00 92 1007.0
20190123024710 20 130 1.0 5.0 0.00 0.00 0.00 92 1007.2
20190123023152 21 114 1.0 6.0 0.00 0.00 0.00 92 1007.1
20190123021621 21 107 1.0 6.0 0.00 0.00 0.00 92 1007.3
20190123020132 21 127 6.0 12.0 0.00 0.00 0.00 92 1007.3
20190123014632 21 104 2.0 7.0 0.00 0.00 0.00 92 1007.5
20190123013113 21 173 5.0 10.0 0.00 0.00 0.00 91 1007.6
20190123011620 22 136 4.0 12.0 0.00 0.00 0.00 91 1007.6
20190123010119 22 134 5.0 10.0 0.00 0.00 0.00 92 1007.7
20190123004603 22 142 2.0 6.0 0.00 0.00 0.00 92 1007.7
20190123003107 22 138 3.0 9.0 0.00 0.00 0.00 92 1007.8
20190123001942 22 118 2.0 10.0 0.00 0.00 0.00 92 1008.0
20190123000027 22 136 2.0 9.0 0.00 0.00 0.00 92 1008.1
20190122234635 22 139 1.0 9.0 0.00 0.00 0.00 92 1008.2
20190122233031 22 142 3.0 6.0 0.00 0.00 0.00 92 1008.2
20190122231524 22 119 3.0 8.0 0.00 0.00 0.00 92 1008.3
20190122230052 22 113 0.0 6.0 0.00 0.00 0.00 93 1008.5
20190122224601 22 126 4.0 7.0 0.00 0.00 0.00 93 1008.5
20190122223034 22 119 3.0 8.0 0.00 0.00 0.00 93 1008.5
20190122221514 22 117 3.0 10.0 0.00 0.00 0.00 93 1008.5
20190122220016 22 148 3.0 8.0 0.00 0.00 0.00 93 1008.6
20190122214508 23 129 3.0 9.0 0.00 0.00 0.00 92 1008.5
20190122213005 24 121 3.0 7.0 0.00 0.00 0.00 92 1008.6
20190122211636 24 163 2.0 6.0 0.00 0.00 0.00 91 1008.6
20190122210208 24 107 2.0 6.0 0.00 0.00 0.00 90 1008.7
20190122204715 25 117 1.0 3.0 0.00 0.00 0.00 89 1008.7
20190122203219 25 128 0.0 6.0 0.00 0.00 0.00 88 1008.8
20190122201728 25 143 1.0 4.0 0.00 0.00 0.00 89 1008.8
20190122200205 25 126 0.0 5.0 0.00 0.00 0.00 90 1008.8
20190122194652 25 133 0.0 5.0 0.00 0.00 0.00 90 1008.9
20190122193208 24 112 1.0 3.0 0.00 0.00 0.00 90 1009.0
20190122191639 25 95 0.0 1.0 0.00 0.00 0.00 89 1009.1
20190122190125 25 96 0.0 2.0 0.00 0.00 0.00 88 1009.1
20190122184647 26 112 1.0 5.0 0.00 0.00 0.00 89 1009.2
20190122183138 26 137 0.0 3.0 0.00 0.00 0.00 89 1009.3
20190122181648 26 105 0.0 6.0 0.00 0.00 0.00 89 1009.4
20190122180154 26 108 2.0 4.0 0.00 0.00 0.00 89 1009.5
20190122174616 26 124 1.0 3.0 0.00 0.00 0.00 88 1009.7
20190122173118 26 109 0.0 4.0 0.00 0.00 0.00 89 1009.7
20190122171559 26 102 1.0 3.0 0.00 0.00 0.00 90 1009.8
20190122170114 25 100 0.0 3.0 0.00 0.00 0.00 89 1009.8
20190122164643 26 117 0.0 2.0 0.00 0.00 0.00 88 1009.9
20190122163104 27 117 0.0 2.0 0.00 0.00 0.00 88 1010.0
20190122161541 27 126 0.0 2.0 0.00 0.00 0.00 88 1010.1
20190122160052 27 159 0.0 1.0 0.00 0.00 0.00 86 1010.2
20190122154547 28 159 0.0 2.0 0.00 0.00 0.00 85 1010.4
20190122153030 29 128 1.0 5.0 0.00 0.00 0.00 85 1010.4
20190122151527 29 124 1.0 3.0 0.00 0.00 0.00 84 1010.5
20190122150034 30 126 0.0 3.0 0.00 0.00 0.00 82 1010.7
20190122144519 31 159 0.0 3.0 0.00 0.00 0.00 81 1010.7
20190122143032 31 154 2.0 9.0 0.00 0.00 0.00 81 1010.9
20190122141534 32 184 1.0 4.0 0.00 0.00 0.00 81 1010.9
20190122140016 32 166 1.0 8.0 0.00 0.00 0.00 83 1011.1
20190122134509 32 173 2.0 6.0 0.00 0.00 0.00 84 1011.3
20190122133042 32 169 1.0 5.0 0.00 0.00 0.00 85 1011.4
20190122131505 32 182 1.0 4.0 0.00 0.00 0.00 86 1011.5
20190122130132 32 170 1.0 5.0 0.00 0.00 0.00 88 1011.7
20190122124645 31 157 1.0 5.0 0.00 0.00 0.00 88 1011.9
20190122123133 31 230 1.0 3.0 0.00 0.00 0.00 89 1012.1
20190122121746 30 148 2.0 6.0 0.00 0.00 0.00 89 1012.4
20190122120314 30 150 2.0 4.0 0.00 0.00 0.00 90 1012.5
20190122114650 30 164 1.0 5.0 0.00 0.00 0.00 90 1012.7
20190122113142 30 134 1.0 5.0 0.00 0.00 0.00 91 1012.9